Regional Weather Roundup
Issued by NWS Memphis, TN

Home | Current Version | Previous Version | Text Only | Print | Product List | Glossary On
Versions: 1 2 3 4 5 6 7 8 9 10 11 12 13 14 15 16 17 18 19 20 21 22 23 24 25 26 27 28 29 30 31 32 33 34 35 36 37 38 39 40 41 42 43 44 45 46 47 48 49 50
000
ASUS44 KMEG 301010
RWRMEG
MEMPHIS CWA HOURLY WEATHER ROUNDUP
NATIONAL WEATHER SERVICE MEMPHIS TN
500 AM CDT TUE JUN 30 2015

...WEST TENNESSEE...

CITY           SKY/WX    TMP DP  RH WIND       PRES   REMARKS
MEMPHIS INTL   MOCLDY    71  65  81 CALM      29.91S
NWS MEMPHIS      N/A     69 N/A N/A MISG        N/A
JACKSON        MOCLDY    72  66  81 SW6       29.91R
LEXINGTON      CLOUDY    70  68  94 CALM      29.91R
DYERSBURG        N/A    N/A N/A N/A MISG        N/A
PARIS          CLEAR     66  66 100 CALM      29.91R


...EASTERN ARKANSAS...

CITY           SKY/WX    TMP DP  RH WIND       PRES   REMARKS
JONESBORO      CLEAR     71  68  90 CALM      29.90R
WEST MEMPHIS   PTCLDY    70  67  90 SW3       29.90S
BATESVILLE     CLEAR     66  64  94 W3        29.93R
NEWPORT        CLEAR     73  68  84 W6        29.92S
WALNUT RIDGE   CLEAR     72  64  78 W5        29.90S
BLYTHEVILLE    CLEAR     74  71  91 SW5       29.90R
SEARCY         CLEAR     70  68  93 CALM      29.93R
STUTTGART      CLOUDY    77  72  83 S9        29.94R
PINE BLUFF     PTCLDY    76  70  82 SW9       29.94R
MONTICELLO     TSTM      74  70  87 E13       29.97R FOG


...NORTH MISSISSIPPI...

CITY           SKY/WX    TMP DP  RH WIND       PRES   REMARKS
TUPELO         CLOUDY    75  71  87 SW6       29.95R
OXFORD         CLOUDY    66  63  88 CALM      29.94R
OLIVE BRANCH   CLEAR     66  66 100 CALM      29.92S
TUNICA         MOCLDY    72  66  83 SW6       29.93S
CLARKSDALE     CLOUDY    72  72 100 S7        29.94R
CORINTH        CLOUDY    72  70  94 S5        29.92S
GREENWOOD      CLOUDY    68  64  87 E7        29.98F
COLUMBUS       CLOUDY    76  70  82 SW7       29.97R
STARKVILLE     PTSUNNY   73  68  83 CALM      29.98R
GOLDEN TRIANGL MOCLDY    75  66  73 SW5       29.98R


...SOUTHEAST MISSOURI...

CITY           SKY/WX    TMP DP  RH WIND       PRES   REMARKS
WEST PLAINS    CLEAR     67  64  90 W6        29.95S
POPLAR BLUFF   CLEAR     69  66  90 CALM      29.88R
CAPE GIRARDEAU CLEAR     68  66  93 CALM      29.88R


...NORTHWEST ALABAMA...

CITY           SKY/WX    TMP DP  RH WIND       PRES   REMARKS
MUSCLE SHOALS  CLOUDY    71  64  78 SW7       29.94F


...MIDDLE TENNESSEE...

CITY           SKY/WX    TMP DP  RH WIND       PRES   REMARKS
NASHVILLE      MOCLDY    69  69 100 S3        29.93R
CLARKSVILLE    CLEAR     65  65 100 CALM      29.90R FOG
COLUMBIA       CLEAR     70  70 100 CALM      29.92R


...WESTERN KENTUCKY...

CITY           SKY/WX    TMP DP  RH WIND       PRES   REMARKS
PADUCAH        CLEAR     69  65  86 SW3       29.87R
FORT CAMPBELL  CLEAR     68  67  94 SW3       29.89R


...CENTRAL ARKANSAS...

CITY           SKY/WX    TMP DP  RH WIND       PRES   REMARKS
LITTLE ROCK    MOCLDY    76  68  76 W7        29.93R


SKY/WX REPORTED AS FAIR MEANS FEW OR NO CLOUDS BELOW
12 THOUSAND FEET.




USA.gov is the U.S. government's official web portal to all federal, state and local government web resources and services.